QPF
0.00 0.00 0.00 0.02 0.02 0.01 0.00 0.00 0.00 0.00 0.00 0.00 0.00 0.00 0.00 0.00 0.00 0.00 0.00 0.00 0.03 0.07 0.05 0.01 0.01 0.01 0.03 0.00 0.00 0.01 0.01 0.00 0.00 0.01 0.00 0.00 0.00 0.01 0.01 0.02 0.01 0.01 0.00
0.00 0.00 0.00 0.00 0.03 0.00 0.00 0.00 0.00 0.00 0.00 0.00 0.00 0.00 0.02 0.04 0.01 0.00 0.00 0.00 0.05 0.03 0.03 0.02 0.01 0.05 0.04 0.00 0.00 0.01 0.00 0.00 0.00 0.00 0.00 0.00 0.00 0.00 0.00 0.00 0.00 0.00 0.00
0.00 0.00 0.00 0.00 0.00 0.00 0.00 0.00 0.00 0.00 0.00 0.00 0.00 0.00 0.00 0.00 0.00 0.00 0.00 0.00 0.01 0.01 0.04 0.02 0.00 0.01 0.12 0.02 0.00 0.01 0.07 0.00 0.00 0.00 0.00 0.00 0.00 0.00 0.00 0.00 0.00 0.00 0.00
0.00 0.00 0.00 0.00 0.00 0.01 0.06 0.00 0.00 0.00 0.00 0.00 0.00 0.00 0.00 0.00 0.00 0.00 0.00 0.00 0.01 0.00 0.02 0.03 0.04 0.01 0.08 0.11 0.02 0.03 0.03 0.05 0.00 0.00 0.00 0.00 0.00 0.00 0.00 0.00 0.00 0.00 0.00
0.13 0.01 0.07 0.01 0.04 0.02 0.01 0.03 0.02 0.00 0.00 0.00 0.01 0.00 0.00 0.00 0.00 0.00 0.00 0.00 0.00 0.00 0.00 0.00 0.02 0.03 0.01 0.04 0.12 0.03 0.05 0.03 0.01 0.00 0.00 0.00 0.00 0.00 0.00 0.00 0.00 0.00 0.00
0.08 0.04 0.10 0.13 0.12 0.13 0.11 0.04 0.02 0.01 0.00 0.00 0.02 0.01 0.00 0.00 0.00 0.00 0.00 0.00 0.00 0.00 0.00 0.01 0.00 0.01 0.03 0.03 0.07 0.07 0.08 0.08 0.01 0.00 0.00 0.00 0.00 0.00 0.00 0.00 0.00 0.00 0.00
0.00 0.01 0.03 0.10 0.04 0.12 0.12 0.02 0.08 0.02 0.02 0.02 0.01 0.00 0.00 0.00 0.00 0.00 0.00 0.00 0.00 0.00 0.00 0.01 0.02 0.00 0.00 0.02 0.05 0.07 0.10 0.11 0.03 0.01 0.00 0.00 0.00 0.00 0.00 0.00 0.00 0.00 0.00
0.00 0.00 0.00 0.00 0.00 0.00 0.00 0.01 0.10 0.06 0.04 0.07 0.01 0.00 0.00 0.00 0.00 0.00 0.00 0.00 0.00 0.00 0.00 0.02 0.00 0.00 0.00 0.00 0.03 0.04 0.08 0.11 0.09 0.06 0.01 0.00 0.00 0.00 0.00 0.00 0.00 0.00 0.00
0.00 0.00 0.00 0.00 0.00 0.00 0.00 0.00 0.04 0.06 0.03 0.08 0.01 0.00 0.00 0.00 0.00 0.00 0.00 0.00 0.00 0.00 0.01 0.00 0.00 0.00 0.00 0.00 0.01 0.02 0.02 0.03 0.06 0.09 0.09 0.03 0.00 0.00 0.00 0.00 0.00 0.00 0.00
0.00 0.00 0.00 0.00 0.00 0.00 0.00 0.03 0.03 0.08 0.12 0.09 0.01 0.00 0.00 0.02 0.03 0.00 0.00 0.01 0.01 0.01 0.02 0.00 0.00 0.00 0.01 0.01 0.00 0.00 0.02 0.02 0.01 0.02 0.05 0.10 0.03 0.00 0.00 0.00 0.00 0.00 0.00
0.00 0.00 0.00 0.00 0.00 0.00 0.00 0.00 0.03 0.05 0.07 0.06 0.04 0.02 0.00 0.00 0.00 0.00 0.00 0.00 0.00 0.02 0.00 0.00 0.00 0.00 0.00 0.00 0.00 0.00 0.00 0.00 0.01 0.01 0.01 0.06 0.12 0.04 0.00 0.00 0.00 0.00 0.00
0.00 0.00 0.00 0.00 0.00 0.00 0.00 0.00 0.00 0.01 0.08 0.10 0.07 0.00 0.02 0.00 0.01 0.01 0.03 0.03 0.00 0.00 0.00 0.00 0.00 0.01 0.00 0.00 0.00 0.00 0.00 0.00 0.00 0.00 0.01 0.00 0.02 0.06 0.03 0.01 0.00 0.00 0.00
0.00 0.00 0.00 0.01 0.00 0.00 0.00 0.00 0.00 0.03 0.12 0.05 0.11 0.12 0.07 0.11 0.12 0.13 0.15 0.11 0.04 0.03 0.02 0.00 0.01 0.01 0.02 0.02 0.00 0.00 0.00 0.00 0.00 0.00 0.00 0.00 0.00 0.02 0.05 0.04 0.02 0.01 0.00
0.00 0.00 0.00 0.00 0.00 0.00 0.00 0.08 0.03 0.07 0.04 0.06 0.16 0.30 0.18 0.14 0.23 0.22 0.06 0.04 0.00 0.10 0.10 0.05 0.01 0.01 0.00 0.00 0.00 0.00 0.00 0.00 0.00 0.00 0.00 0.00 0.00 0.00 0.00 0.02 0.03 0.02 0.01
0.00 0.00 0.00 0.00 0.00 0.00 0.00 0.05 0.04 0.09 0.09 0.01 0.07 0.29 0.04 0.20 0.26 0.15 0.02 0.03 0.00 0.08 0.17 0.12 0.01 0.00 0.00 0.01 0.00 0.00 0.00 0.00 0.00 0.00 0.00 0.00 0.00 0.00 0.00 0.00 0.11 0.04 0.02
0.00 0.00 0.00 0.01 0.00 0.00 0.00 0.04 0.06 0.14 0.14 0.02 0.12 0.13 0.01 0.13 0.09 0.01 0.00 0.02 0.02 0.01 0.08 0.19 0.08 0.01 0.00 0.02 0.02 0.02 0.00 0.00 0.00 0.00 0.00 0.00 0.00 0.00 0.00 0.00 0.01 0.00 0.00
0.00 0.00 0.01 0.00 0.01 0.01 0.01 0.03 0.03 0.21 0.13 0.01 0.05 0.05 0.03 0.02 0.01 0.00 0.00 0.01 0.01 0.05 0.05 0.17 0.11 0.08 0.08 0.04 0.04 0.03 0.03 0.01 0.03 0.01 0.00 0.00 0.00 0.00 0.00 0.00 0.00 0.00 0.00
0.00 0.00 0.00 0.00 0.02 0.02 0.03 0.03 0.07 0.06 0.10 0.06 0.07 0.01 0.03 0.00 0.01 0.00 0.00 0.00 0.00 0.01 0.00 0.00 0.01 0.01 0.00 0.00 0.03 0.01 0.04 0.03 0.05 0.02 0.01 0.00 0.00 0.00 0.00 0.00 0.00 0.00 0.00
0.00 0.00 0.00 0.00 0.00 0.01 0.00 0.00 0.10 0.15 0.06 0.05 0.03 0.00 0.06 0.01 0.04 0.00 0.00 0.00 0.00 0.00 0.00 0.00 0.00 0.00 0.00 0.00 0.00 0.00 0.00 0.00 0.00 0.00 0.00 0.00 0.00 0.00 0.00 0.00 0.00 0.00 0.00
0.03 0.01 0.04 0.02 0.01 0.00 0.00 0.02 0.02 0.06 0.09 0.04 0.01 0.00 0.10 0.07 0.02 0.01 0.00 0.00 0.00 0.00 0.00 0.00 0.00 0.00 0.00 0.00 0.00 0.00 0.00 0.00 0.01 0.01 0.00 0.00 0.00 0.00 0.00 0.00 0.00 0.00 0.00
0.05 0.09 0.07 0.07 0.09 0.04 0.03 0.04 0.04 0.07 0.05 0.02 0.00 0.01 0.07 0.02 0.00 0.00 0.00 0.00 0.00 0.00 0.00 0.00 0.00 0.00 0.00 0.00 0.00 0.00 0.00 0.00 0.00 0.00 0.00 0.00 0.00 0.00 0.00 0.00 0.02 0.06 0.05
0.04 0.11 0.06 0.04 0.06 0.03 0.01 0.00 0.00 0.00 0.00 0.01 0.01 0.00 0.00 0.00 0.00 0.00 0.00 0.00 0.00 0.00 0.00 0.00 0.00 0.00 0.00 0.00 0.00 0.00 0.00 0.00 0.00 0.00 0.00 0.00 0.00 0.00 0.00 0.00 0.00 0.01 0.03
0.13 0.05 0.05 0.10 0.04 0.03 0.00 0.00 0.00 0.00 0.00 0.00 0.00 0.00 0.00 0.00 0.00 0.00 0.00 0.00 0.00 0.00 0.00 0.00 0.00 0.00 0.00 0.00 0.00 0.00 0.00 0.00 0.00 0.00 0.00 0.00 0.00 0.00 0.00 0.00 0.00 0.00 0.00
0.02 0.03 0.01 0.06 0.04 0.00 0.00 0.00 0.00 0.00 0.00 0.00 0.00 0.00 0.00 0.00 0.00 0.00 0.00 0.00 0.00 0.00 0.00 0.00 0.00 0.00 0.00 0.00 0.00 0.00 0.00 0.00 0.00 0.00 0.00 0.00 0.00 0.00 0.00 0.00 0.00 0.00 0.00
0.02 0.03 0.01 0.00 0.00 0.00 0.00 0.00 0.00 0.00 0.00 0.00 0.00 0.00 0.00 0.00 0.00 0.00 0.00 0.00 0.00 0.00 0.00 0.00 0.00 0.00 0.01 0.01 0.00 0.00 0.00 0.00 0.00 0.00 0.00 0.00 0.00 0.00 0.00 0.00 0.00 0.00 0.00
0.02 0.00 0.01 0.02 0.01 0.00 0.05 0.09 0.07 0.04 0.00 0.00 0.00 0.00 0.00 0.00 0.00 0.00 0.00 0.00 0.00 0.00 0.00 0.00 0.00 0.01 0.03 0.05 0.05 0.03 0.01 0.00 0.00 0.00 0.00 0.00 0.00 0.00 0.00 0.00 0.00 0.00 0.00
MSLP
1020.99 1021.24 1021.41 1021.48 1021.69 1021.85 1022.10 1022.38 1022.59 1022.54 1022.50 1022.52 1022.50 1022.53 1022.59 1022.64 1022.69 1022.76 1022.89 1022.88 1023.03 1023.08 1023.07 1023.17 1023.52 1023.69 1023.85 1024.14 1024.42 1024.42 1024.47 1024.53 1024.62 1024.74 1024.92 1025.01 1025.09 1025.26 1025.35 1025.50 1025.61 1025.79 1025.90
1021.09 1021.34 1021.56 1021.66 1021.82 1021.99 1022.21 1022.43 1022.49 1022.52 1022.56 1022.60 1022.61 1022.64 1022.78 1022.82 1022.74 1022.82 1022.99 1022.93 1022.93 1022.98 1023.15 1023.23 1023.38 1023.61 1023.77 1023.91 1024.00 1024.18 1024.52 1024.75 1024.86 1024.94 1025.09 1025.19 1025.20 1025.38 1025.58 1025.84 1025.98 1026.15 1026.33
1021.05 1021.34 1021.60 1021.74 1021.77 1022.00 1022.27 1022.47 1022.58 1022.69 1022.89 1022.93 1022.97 1022.95 1022.83 1022.85 1022.85 1022.85 1023.04 1023.17 1023.14 1022.94 1023.05 1023.14 1023.29 1023.53 1023.82 1023.91 1024.07 1024.33 1024.54 1024.63 1024.97 1025.14 1025.29 1025.38 1025.56 1025.72 1025.97 1026.14 1026.24 1026.34 1026.56
1021.04 1021.29 1021.53 1021.61 1021.69 1021.93 1022.21 1022.43 1022.63 1023.00 1023.21 1023.26 1023.30 1023.29 1023.17 1023.07 1023.08 1022.99 1023.09 1023.18 1023.20 1023.15 1023.10 1023.00 1023.21 1023.42 1023.76 1023.98 1024.02 1024.07 1024.38 1024.71 1024.99 1025.21 1025.33 1025.49 1025.67 1025.89 1026.10 1026.31 1026.45 1026.53 1026.65
1021.02 1021.20 1021.49 1021.49 1021.80 1022.03 1022.26 1022.48 1022.75 1022.92 1023.31 1023.51 1023.57 1023.46 1023.26 1023.19 1023.09 1023.10 1023.13 1023.13 1023.12 1023.08 1023.19 1023.20 1023.30 1023.43 1023.51 1023.73 1023.82 1024.00 1024.27 1024.54 1024.92 1025.12 1025.30 1025.48 1025.67 1025.96 1026.19 1026.40 1026.63 1026.69 1026.76
1020.68 1021.05 1021.31 1021.50 1021.71 1022.13 1022.33 1022.47 1022.58 1022.86 1023.15 1023.44 1023.59 1023.51 1023.33 1022.95 1022.89 1022.97 1022.92 1022.96 1023.03 1023.05 1023.01 1023.16 1023.27 1023.29 1023.29 1023.39 1023.59 1023.78 1024.15 1024.27 1024.65 1024.97 1025.20 1025.36 1025.63 1025.89 1026.22 1026.41 1026.65 1026.78 1026.81
1020.13 1020.55 1020.87 1021.28 1021.47 1021.92 1022.03 1022.26 1022.62 1022.98 1023.14 1023.43 1023.62 1023.25 1022.82 1022.53 1022.67 1022.60 1022.65 1022.75 1022.93 1022.85 1022.87 1022.98 1023.11 1023.18 1023.17 1023.28 1023.47 1023.66 1023.97 1024.24 1024.34 1024.63 1024.99 1025.24 1025.46 1025.76 1026.09 1026.39 1026.59 1026.79 1026.91
1019.64 1020.01 1020.33 1020.63 1020.94 1021.45 1021.79 1022.09 1022.47 1022.98 1023.03 1023.29 1023.52 1023.55 1023.04 1022.72 1022.45 1022.38 1022.50 1022.51 1022.56 1022.69 1022.72 1022.65 1022.72 1022.84 1022.99 1023.21 1023.25 1023.41 1023.62 1023.88 1024.08 1024.32 1024.59 1024.99 1025.23 1025.56 1025.86 1026.15 1026.41 1026.62 1026.83
1019.25 1019.60 1019.92 1020.26 1020.64 1020.97 1021.33 1021.69 1022.01 1022.43 1022.71 1023.23 1023.34 1023.35 1023.40 1023.12 1022.76 1022.24 1022.21 1022.19 1022.24 1022.40 1022.36 1022.53 1022.42 1022.54 1022.56 1022.86 1023.04 1023.22 1023.24 1023.42 1023.69 1023.98 1024.30 1024.60 1024.95 1025.23 1025.57 1025.88 1026.12 1026.39 1026.63
1018.79 1019.19 1019.56 1019.87 1020.21 1020.51 1020.89 1021.06 1021.27 1021.90 1022.36 1022.70 1023.14 1023.10 1023.04 1023.12 1022.94 1022.65 1022.13 1021.98 1021.83 1021.88 1021.85 1021.91 1021.95 1021.99 1022.20 1022.35 1022.56 1022.75 1022.91 1023.04 1023.27 1023.59 1023.88 1024.17 1024.51 1024.86 1025.15 1025.51 1025.76 1026.05 1026.32
1018.38 1018.69 1019.06 1019.42 1019.80 1020.07 1020.32 1020.58 1020.94 1021.40 1021.79 1022.12 1022.39 1022.60 1022.75 1022.83 1022.98 1023.01 1022.25 1021.88 1021.79 1021.48 1021.25 1021.27 1021.24 1021.40 1021.56 1021.77 1022.00 1022.13 1022.34 1022.65 1022.83 1023.05 1023.36 1023.64 1024.08 1024.39 1024.68 1024.98 1025.29 1025.58 1025.86
1018.21 1018.35 1018.61 1018.97 1019.29 1019.59 1019.92 1020.10 1020.32 1020.83 1021.19 1021.57 1021.84 1022.09 1022.17 1022.29 1022.26 1022.38 1022.21 1021.77 1021.64 1021.05 1020.71 1020.61 1020.64 1020.76 1020.81 1021.01 1021.24 1021.46 1021.67 1021.99 1022.28 1022.53 1022.78 1023.05 1023.37 1023.78 1024.13 1024.31 1024.63 1024.95 1025.26
1017.85 1017.91 1018.06 1018.47 1018.78 1018.91 1019.22 1019.58 1020.07 1020.42 1020.71 1021.05 1021.30 1021.44 1021.53 1021.53 1021.60 1021.68 1021.76 1021.45 1021.20 1020.84 1020.48 1020.14 1019.91 1020.05 1020.24 1020.42 1020.45 1020.69 1021.01 1021.37 1021.69 1021.96 1022.20 1022.46 1022.76 1023.04 1023.37 1023.65 1023.90 1024.16 1024.44
1017.08 1017.03 1017.43 1017.66 1017.90 1018.27 1018.60 1019.00 1019.46 1019.76 1020.05 1020.18 1020.56 1020.74 1020.85 1020.84 1020.98 1020.97 1021.10 1021.16 1020.86 1020.62 1020.31 1019.87 1019.50 1019.37 1019.57 1019.75 1019.88 1020.02 1020.25 1020.61 1020.98 1021.33 1021.57 1021.77 1022.02 1022.34 1022.64 1022.94 1023.24 1023.49 1023.67
1016.53 1016.75 1016.96 1017.29 1017.26 1017.55 1017.82 1018.28 1018.84 1019.14 1019.36 1019.48 1019.60 1019.79 1020.01 1019.98 1020.22 1020.30 1020.40 1020.48 1020.54 1020.38 1019.99 1019.54 1019.43 1019.04 1019.19 1019.48 1019.55 1019.70 1019.79 1019.93 1020.22 1020.60 1020.94 1021.20 1021.42 1021.68 1021.89 1022.18 1022.41 1022.70 1022.98
1016.10 1016.45 1016.74 1016.91 1016.99 1017.13 1017.21 1017.76 1018.23 1018.48 1018.55 1018.66 1018.60 1018.95 1019.12 1019.23 1019.41 1019.47 1019.60 1019.72 1019.84 1019.92 1019.79 1019.44 1019.22 1019.08 1018.82 1019.00 1019.22 1019.19 1019.32 1019.49 1019.71 1019.96 1020.24 1020.54 1020.79 1021.02 1021.25 1021.49 1021.72 1021.98 1022.18
1015.57 1015.98 1016.24 1016.47 1016.69 1016.82 1017.01 1017.41 1017.63 1017.88 1017.88 1017.77 1018.07 1018.15 1018.30 1018.52 1018.78 1018.92 1019.11 1019.23 1019.34 1019.48 1019.50 1019.32 1019.09 1018.81 1018.70 1018.65 1018.62 1018.80 1018.88 1019.08 1019.22 1019.37 1019.72 1019.96 1020.16 1020.32 1020.46 1020.67 1020.89 1021.11 1021.34
1015.11 1015.36 1015.68 1016.05 1016.15 1016.33 1016.55 1016.79 1017.01 1017.32 1017.37 1017.25 1017.30 1017.64 1017.65 1017.97 1018.16 1018.38 1018.65 1018.76 1018.81 1018.89 1018.98 1018.95 1018.83 1018.72 1018.61 1018.40 1018.11 1018.29 1018.36 1018.45 1018.62 1018.73 1018.99 1019.21 1019.41 1019.62 1019.77 1019.92 1020.05 1020.21 1020.45
1014.48 1014.83 1014.98 1015.28 1015.55 1015.78 1016.00 1016.06 1016.20 1016.43 1016.54 1016.48 1016.54 1016.86 1016.96 1017.39 1017.47 1017.66 1018.01 1018.25 1018.40 1018.48 1018.57 1018.51 1018.40 1018.41 1018.39 1018.38 1018.21 1017.95 1018.07 1017.94 1017.99 1018.09 1018.32 1018.49 1018.66 1018.80 1018.95 1019.13 1019.31 1019.43 1019.62
1013.71 1014.13 1014.32 1014.49 1014.82 1015.09 1015.33 1015.45 1015.60 1015.79 1015.83 1015.89 1016.02 1016.07 1016.31 1016.70 1016.79 1017.02 1017.31 1017.55 1017.83 1018.11 1018.23 1018.28 1018.34 1018.24 1018.06 1017.91 1017.89 1017.74 1017.97 1017.79 1017.64 1017.38 1017.40 1017.54 1017.79 1017.98 1018.21 1018.37 1018.57 1018.72 1018.79
1013.00 1013.00 1013.62 1013.84 1014.14 1014.31 1014.44 1014.69 1014.91 1015.12 1015.17 1015.09 1015.16 1015.27 1015.51 1015.69 1015.81 1015.93 1016.47 1016.81 1017.22 1017.65 1018.05 1018.38 1018.40 1018.21 1018.02 1018.03 1018.06 1017.84 1017.67 1017.36 1017.19 1017.05 1017.05 1017.07 1017.12 1017.25 1017.15 1017.43 1017.52 1017.62 1017.76
1012.45 1012.70 1012.81 1012.99 1013.47 1013.37 1013.38 1013.50 1013.81 1014.13 1014.00 1014.02 1014.23 1014.43 1014.55 1014.86 1015.22 1015.64 1015.84 1016.13 1016.43 1016.76 1017.08 1017.46 1017.73 1017.82 1017.77 1017.73 1017.53 1017.53 1017.49 1017.37 1017.17 1016.81 1016.85 1016.59 1016.54 1016.52 1016.31 1016.41 1016.32 1016.48 1016.57
1011.95 1012.10 1012.22 1012.41 1012.43 1012.50 1012.42 1012.52 1012.78 1013.06 1013.12 1013.15 1013.44 1013.71 1013.95 1014.15 1014.44 1014.89 1015.30 1015.79 1016.18 1016.32 1016.34 1016.46 1016.71 1016.87 1016.98 1017.06 1017.31 1017.19 1017.27 1017.22 1017.01 1016.78 1016.76 1016.44 1016.17 1015.92 1015.50 1015.51 1015.61 1015.72 1015.87
1011.46 1011.18 1011.42 1011.65 1011.93 1011.62 1011.44 1011.79 1012.20 1012.73 1012.78 1012.77 1012.90 1013.08 1013.34 1013.58 1013.96 1014.39 1014.79 1015.08 1015.30 1015.65 1015.95 1016.11 1015.98 1015.85 1016.08 1016.17 1016.52 1016.70 1016.78 1016.83 1016.73 1016.49 1016.55 1016.34 1015.85 1015.41 1015.07 1014.88 1014.90 1014.99 1015.20
1010.96 1010.84 1010.67 1010.80 1010.93 1010.44 1010.70 1011.23 1011.92 1012.43 1012.65 1012.73 1012.96 1013.02 1013.34 1013.58 1013.80 1014.23 1014.69 1014.83 1014.90 1014.72 1014.76 1015.28 1015.41 1015.55 1015.72 1015.83 1015.83 1016.47 1016.69 1016.87 1016.59 1016.17 1016.13 1016.10 1015.73 1015.41 1014.95 1014.57 1014.49 1014.55 1014.65
1010.41 1010.31 1010.13 1010.00 1009.77 1009.67 1010.39 1010.67 1011.25 1011.82 1012.08 1012.10 1012.26 1012.45 1012.73 1013.33 1013.73 1014.13 1014.42 1014.53 1014.84 1014.63 1014.58 1014.71 1015.21 1015.14 1015.28 1015.60 1015.92 1015.78 1016.01 1016.21 1016.39 1016.01 1015.66 1015.97 1015.63 1015.56 1015.10 1014.69 1014.48 1014.39 1014.34
Thickness
5762 5760 5759 5758 5756 5755 5753 5750 5749 5750 5750 5748 5749 5749 5749 5748 5746 5746 5744 5744 5742 5742 5741 5742 5740 5739 5737 5736 5735 5735 5737 5738 5739 5738 5738 5737 5737 5735 5735 5733 5733 5732 5732
5761 5760 5758 5758 5757 5756 5753 5751 5750 5750 5750 5748 5748 5748 5747 5747 5746 5745 5743 5743 5742 5741 5740 5739 5740 5740 5738 5738 5739 5738 5734 5734 5735 5736 5735 5735 5735 5734 5733 5731 5730 5730 5729
5762 5761 5759 5758 5757 5756 5755 5753 5752 5750 5747 5746 5745 5745 5746 5746 5745 5744 5741 5740 5740 5740 5739 5739 5738 5738 5736 5737 5735 5733 5732 5733 5731 5732 5733 5733 5732 5732 5730 5729 5729 5729 5728
5763 5761 5760 5760 5759 5757 5756 5754 5752 5750 5747 5745 5744 5744 5743 5744 5743 5742 5739 5738 5739 5738 5738 5738 5738 5736 5735 5731 5732 5733 5730 5728 5727 5728 5730 5731 5730 5730 5729 5728 5728 5728 5728
5763 5762 5760 5760 5758 5756 5755 5754 5753 5751 5747 5744 5743 5743 5743 5743 5743 5742 5740 5739 5738 5738 5736 5736 5735 5734 5733 5732 5732 5732 5731 5727 5724 5727 5729 5729 5729 5728 5728 5728 5727 5727 5728
5765 5762 5761 5759 5758 5755 5755 5754 5755 5752 5749 5746 5744 5744 5745 5746 5746 5745 5743 5741 5739 5738 5736 5735 5734 5733 5733 5732 5731 5731 5730 5728 5727 5726 5727 5728 5728 5728 5727 5727 5726 5727 5728
5768 5765 5764 5761 5760 5757 5757 5756 5753 5751 5748 5746 5743 5745 5748 5751 5749 5749 5746 5744 5742 5740 5739 5737 5734 5732 5732 5731 5729 5729 5729 5727 5727 5727 5727 5728 5728 5727 5726 5726 5726 5726 5727
5771 5769 5768 5766 5763 5760 5758 5756 5753 5749 5750 5748 5743 5740 5740 5747 5750 5751 5748 5746 5744 5742 5740 5739 5736 5735 5733 5730 5729 5728 5729 5728 5728 5728 5727 5727 5728 5727 5727 5726 5726 5726 5727
5773 5771 5770 5767 5765 5763 5760 5758 5756 5753 5750 5747 5745 5742 5736 5735 5742 5751 5751 5749 5747 5744 5742 5740 5739 5736 5734 5731 5728 5727 5730 5730 5729 5727 5727 5727 5727 5727 5727 5726 5726 5726 5727
5777 5773 5771 5769 5767 5765 5763 5763 5761 5756 5753 5747 5746 5746 5745 5743 5735 5738 5749 5749 5747 5747 5747 5744 5741 5740 5736 5734 5732 5731 5730 5730 5730 5728 5728 5727 5727 5727 5727 5726 5726 5726 5727
5778 5777 5774 5771 5769 5767 5766 5765 5762 5758 5756 5752 5750 5748 5746 5744 5742 5737 5740 5745 5749 5751 5750 5748 5747 5743 5740 5736 5734 5732 5732 5732 5732 5731 5730 5730 5728 5727 5726 5726 5726 5727 5727
5777 5778 5776 5773 5771 5769 5767 5766 5764 5762 5759 5756 5754 5751 5748 5745 5744 5741 5739 5744 5745 5752 5755 5753 5750 5747 5745 5742 5739 5737 5736 5735 5734 5734 5733 5732 5732 5730 5728 5728 5728 5728 5728
5778 5780 5779 5776 5774 5773 5770 5768 5765 5763 5761 5758 5756 5754 5753 5751 5749 5747 5744 5744 5744 5750 5752 5756 5756 5753 5750 5747 5746 5742 5739 5737 5736 5736 5735 5734 5734 5733 5732 5731 5731 5731 5731
5783 5783 5781 5780 5779 5776 5773 5770 5768 5767 5765 5763 5759 5757 5756 5756 5753 5752 5749 5745 5744 5746 5750 5753 5757 5757 5754 5751 5749 5747 5744 5742 5740 5739 5738 5738 5737 5736 5735 5734 5734 5733 5733
5786 5783 5781 5780 5780 5779 5776 5772 5770 5768 5768 5767 5766 5763 5760 5760 5757 5756 5754 5751 5745 5741 5745 5752 5752 5756 5754 5751 5750 5748 5747 5746 5744 5742 5741 5739 5738 5738 5738 5738 5738 5737 5736
5786 5783 5781 5780 5779 5779 5778 5776 5772 5771 5770 5770 5771 5767 5766 5764 5761 5760 5758 5755 5752 5749 5744 5750 5752 5753 5754 5752 5751 5751 5750 5749 5747 5745 5744 5743 5741 5741 5741 5741 5741 5740 5739
5786 5784 5783 5780 5779 5778 5778 5776 5774 5774 5773 5773 5772 5771 5770 5768 5763 5761 5759 5757 5754 5752 5746 5749 5749 5751 5753 5752 5753 5751 5752 5750 5750 5748 5746 5745 5744 5744 5745 5745 5744 5743 5742
5787 5785 5784 5781 5780 5779 5778 5777 5775 5775 5774 5775 5776 5774 5773 5770 5765 5763 5761 5759 5757 5755 5751 5747 5750 5749 5749 5751 5754 5753 5754 5753 5752 5751 5748 5747 5746 5746 5746 5746 5746 5746 5745
5791 5788 5788 5785 5783 5781 5779 5780 5779 5779 5779 5781 5780 5777 5776 5772 5769 5768 5765 5761 5759 5756 5753 5750 5748 5750 5749 5748 5748 5751 5753 5755 5755 5754 5751 5750 5750 5749 5749 5748 5747 5747 5747
5795 5791 5791 5790 5787 5786 5784 5783 5783 5782 5783 5783 5782 5783 5781 5775 5774 5772 5769 5765 5762 5757 5754 5751 5748 5747 5748 5749 5748 5746 5750 5755 5756 5757 5756 5753 5753 5752 5751 5750 5749 5748 5748
5799 5798 5794 5793 5791 5790 5790 5788 5787 5785 5786 5787 5787 5786 5785 5782 5781 5779 5774 5770 5765 5759 5753 5747 5744 5745 5745 5746 5746 5749 5752 5757 5759 5761 5760 5758 5755 5754 5754 5753 5752 5751 5750
5801 5800 5799 5797 5793 5796 5796 5796 5795 5792 5794 5793 5791 5790 5790 5786 5783 5777 5775 5772 5769 5763 5758 5753 5749 5745 5746 5747 5752 5752 5751 5750 5751 5760 5758 5760 5760 5759 5758 5756 5756 5756 5755
5799 5801 5800 5799 5798 5799 5802 5802 5802 5800 5799 5800 5798 5797 5794 5793 5789 5784 5778 5770 5765 5763 5763 5761 5755 5753 5752 5753 5751 5751 5750 5750 5750 5755 5754 5753 5761 5759 5762 5760 5759 5757 5755
5799 5799 5801 5802 5800 5806 5809 5806 5803 5800 5800 5803 5802 5799 5796 5794 5791 5786 5780 5776 5773 5767 5762 5759 5759 5759 5758 5759 5755 5753 5752 5750 5752 5754 5752 5747 5757 5758 5761 5760 5759 5757 5754
5797 5800 5803 5802 5804 5811 5809 5805 5800 5797 5794 5793 5792 5792 5789 5787 5784 5781 5778 5773 5770 5770 5771 5765 5761 5758 5756 5756 5756 5751 5747 5743 5743 5747 5750 5748 5749 5751 5755 5756 5755 5753 5751
5794 5797 5799 5804 5808 5811 5805 5800 5798 5795 5790 5790 5789 5789 5785 5780 5775 5772 5771 5770 5764 5765 5766 5764 5760 5758 5756 5752 5750 5749 5747 5741 5738 5740 5745 5742 5743 5743 5743 5745 5745 5744 5743